| time (UTC) | temp C | wind direction | speed KPH | gust KPH | rain 1hr cm | rain 24hr cm | rain mn cm | humidity % | barometer mb |
| 20260510150640 | 30 | 262 | 3.2 | 3.2 | 0.00 | 0.03 | 0.03 | 70 | 1016.0 |
| 20260510150135 | 30 | 280 | 1.6 | 3.2 | 0.00 | 0.03 | 0.03 | 74 | 1015.9 |
| 20260510145632 | 30 | 54 | 0.0 | 0.0 | 0.00 | 0.03 | 0.03 | 72 | 1016.0 |
| 20260510145129 | 30 | 53 | 0.0 | 1.6 | 0.00 | 0.03 | 0.03 | 75 | 1016.0 |
| 20260510144624 | 28 | 345 | 0.0 | 1.6 | 0.00 | 0.03 | 0.03 | 78 | 1015.9 |
| 20260510144121 | 29 | 83 | 0.0 | 1.6 | 0.00 | 0.03 | 0.03 | 78 | 1016.0 |
| 20260510143616 | 30 | 124 | 3.2 | 3.2 | 0.00 | 0.03 | 0.03 | 74 | 1016.1 |
| 20260510143113 | 30 | 127 | 1.6 | 3.2 | 0.00 | 0.03 | 0.03 | 75 | 1016.1 |
| 20260510142610 | 28 | 84 | 0.0 | 0.0 | 0.00 | 0.03 | 0.03 | 77 | 1016.1 |
| 20260510142106 | 28 | 89 | 1.6 | 3.2 | 0.00 | 0.03 | 0.03 | 79 | 1015.9 |
| 20260510141603 | 28 | 56 | 0.0 | 0.0 | 0.00 | 0.03 | 0.03 | 78 | 1015.9 |
| 20260510141102 | 28 | 102 | 3.2 | 3.2 | 0.00 | 0.03 | 0.03 | 80 | 1015.7 |
| 20260510140557 | 28 | 212 | 1.6 | 1.6 | 0.00 | 0.03 | 0.03 | 81 | 1016.0 |
| 20260510140056 | 28 | 27 | 0.0 | 1.6 | 0.00 | 0.03 | 0.03 | 80 | 1015.7 |
| 20260510135553 | 28 | 276 | 1.6 | 1.6 | 0.00 | 0.03 | 0.03 | 81 | 1015.6 |
| 20260510135049 | 28 | 210 | 1.6 | 3.2 | 0.00 | 0.03 | 0.03 | 79 | 1015.7 |
| 20260510134546 | 28 | 132 | 3.2 | 3.2 | 0.00 | 0.03 | 0.03 | 77 | 1015.8 |
| 20260510134043 | 28 | 82 | 0.0 | 0.0 | 0.00 | 0.03 | 0.03 | 79 | 1015.9 |
| 20260510133539 | 28 | 74 | 0.0 | 1.6 | 0.00 | 0.03 | 0.03 | 80 | 1015.5 |
| 20260510133035 | 28 | 79 | 0.0 | 1.6 | 0.00 | 0.03 | 0.03 | 79 | 1015.6 |
| 20260510132532 | 27 | 126 | 0.0 | 1.6 | 0.00 | 0.03 | 0.03 | 80 | 1015.5 |
| 20260510132029 | 27 | 170 | 1.6 | 1.6 | 0.00 | 0.03 | 0.03 | 83 | 1015.4 |
| 20260510131526 | 27 | 158 | 1.6 | 1.6 | 0.00 | 0.03 | 0.03 | 83 | 1015.4 |
| 20260510131023 | 27 | 183 | 0.0 | 1.6 | 0.00 | 0.03 | 0.03 | 83 | 1015.2 |
| 20260510130519 | 26 | 271 | 1.6 | 3.2 | 0.00 | 0.03 | 0.03 | 84 | 1015.5 |
| 20260510130017 | 26 | 67 | 0.0 | 0.0 | 0.00 | 0.03 | 0.03 | 85 | 1015.4 |
| 20260510125513 | 25 | 72 | 0.0 | 0.0 | 0.00 | 0.03 | 0.03 | 87 | 1015.5 |
| 20260510125010 | 24 | 88 | 0.0 | 1.6 | 0.00 | 0.03 | 0.03 | 90 | 1015.2 |
| 20260510124506 | 23 | 81 | 1.6 | 3.2 | 0.00 | 0.03 | 0.03 | 92 | 1015.1 |
| 20260510124004 | 23 | 228 | 1.6 | 1.6 | 0.00 | 0.03 | 0.03 | 95 | 1015.2 |
| 20260510123458 | 22 | 94 | 0.0 | 0.0 | 0.00 | 0.03 | 0.03 | 98 | 1015.1 |
| 20260510122955 | 22 | 85 | 0.0 | 0.0 | 0.00 | 0.03 | 0.03 | 99 | 1015.2 |
| 20260510122450 | 22 | 93 | 0.0 | 0.0 | 0.00 | 0.03 | 0.03 | 99 | 1015.1 |
| 20260510121947 | 21 | 91 | 0.0 | 0.0 | 0.00 | 0.03 | 0.03 | 99 | 1015.1 |
| 20260510121444 | 21 | 90 | 0.0 | 0.0 | 0.00 | 0.03 | 0.03 | 99 | 1015.0 |
| 20260510120942 | 21 | 90 | 0.0 | 0.0 | 0.00 | 0.03 | 0.03 | 99 | 1014.9 |
| 20260510120439 | 21 | 90 | 0.0 | 0.0 | 0.00 | 0.03 | 0.03 | 99 | 1014.8 |
| 20260510115934 | 21 | 91 | 0.0 | 0.0 | 0.00 | 0.03 | 0.03 | 99 | 1014.7 |
| 20260510115432 | 21 | 92 | 0.0 | 0.0 | 0.00 | 0.03 | 0.03 | 99 | 1014.5 |
| 20260510114927 | 21 | 93 | 0.0 | 0.0 | 0.00 | 0.03 | 0.03 | 99 | 1014.6 |
| 20260510114425 | 21 | 93 | 0.0 | 0.0 | 0.00 | 0.03 | 0.03 | 99 | 1014.4 |
| 20260510113920 | 20 | 93 | 0.0 | 0.0 | 0.00 | 0.03 | 0.03 | 99 | 1014.4 |
| 20260510113416 | 20 | 93 | 0.0 | 0.0 | 0.00 | 0.03 | 0.03 | 99 | 1014.5 |
| 20260510112913 | 20 | 93 | 0.0 | 0.0 | 0.00 | 0.03 | 0.03 | 99 | 1014.4 |
| 20260510112410 | 20 | 93 | 0.0 | 0.0 | 0.00 | 0.03 | 0.03 | 99 | 1014.4 |
| 20260510111906 | 20 | 93 | 0.0 | 0.0 | 0.00 | 0.03 | 0.03 | 99 | 1014.1 |
| 20260510111403 | 20 | 93 | 0.0 | 0.0 | 0.00 | 0.03 | 0.03 | 99 | 1013.7 |
| 20260510110858 | 20 | 94 | 0.0 | 0.0 | 0.00 | 0.03 | 0.03 | 99 | 1013.9 |
| 20260510110355 | 20 | 94 | 0.0 | 0.0 | 0.00 | 0.03 | 0.03 | 99 | 1013.7 |
| 20260510105851 | 19 | 93 | 0.0 | 0.0 | 0.00 | 0.03 | 0.03 | 99 | 1013.7 |
| 20260510105350 | 19 | 93 | 0.0 | 0.0 | 0.00 | 0.03 | 0.03 | 99 | 1013.6 |
| 20260510104847 | 19 | 93 | 0.0 | 0.0 | 0.00 | 0.03 | 0.03 | 99 | 1013.6 |
| 20260510104344 | 19 | 93 | 0.0 | 0.0 | 0.00 | 0.03 | 0.03 | 99 | 1013.5 |
| 20260510103840 | 19 | 93 | 0.0 | 0.0 | 0.00 | 0.03 | 0.03 | 99 | 1013.5 |
| 20260510103337 | 19 | 93 | 0.0 | 0.0 | 0.00 | 0.03 | 0.03 | 99 | 1013.7 |
| 20260510102833 | 19 | 93 | 0.0 | 0.0 | 0.00 | 0.03 | 0.03 | 99 | 1013.6 |
| 20260510102329 | 19 | 85 | 0.0 | 0.0 | 0.00 | 0.03 | 0.03 | 99 | 1013.4 |
| 20260510101826 | 19 | 130 | 0.0 | 0.0 | 0.00 | 0.03 | 0.03 | 99 | 1013.3 |
| 20260510101324 | 20 | 130 | 0.0 | 0.0 | 0.00 | 0.03 | 0.03 | 99 | 1013.4 |
| 20260510100820 | 19 | 130 | 0.0 | 0.0 | 0.00 | 0.03 | 0.03 | 99 | 1013.2 |
| 20260510100318 | 19 | 130 | 0.0 | 0.0 | 0.00 | 0.03 | 0.03 | 99 | 1013.1 |
| 20260510095813 | 20 | 130 | 0.0 | 0.0 | 0.00 | 0.03 | 0.03 | 99 | 1013.1 |
| 20260510095309 | 20 | 130 | 0.0 | 0.0 | 0.00 | 0.03 | 0.03 | 99 | 1013.0 |
| 20260510094803 | 20 | 130 | 0.0 | 0.0 | 0.00 | 0.03 | 0.03 | 99 | 1013.0 |
| 20260510094258 | 20 | 130 | 0.0 | 0.0 | 0.00 | 0.03 | 0.03 | 99 | 1013.1 |
| 20260510093754 | 20 | 101 | 0.0 | 0.0 | 0.00 | 0.03 | 0.03 | 99 | 1012.9 |
| 20260510093251 | 20 | 101 | 0.0 | 0.0 | 0.00 | 0.03 | 0.03 | 99 | 1012.9 |
| 20260510092747 | 20 | 102 | 0.0 | 0.0 | 0.00 | 0.03 | 0.03 | 98 | 1012.9 |
| 20260510092243 | 20 | 102 | 0.0 | 0.0 | 0.00 | 0.03 | 0.03 | 98 | 1013.0 |
| 20260510091739 | 20 | 130 | 0.0 | 0.0 | 0.00 | 0.03 | 0.03 | 98 | 1013.0 |
| 20260510091237 | 20 | 130 | 0.0 | 0.0 | 0.00 | 0.03 | 0.03 | 98 | 1012.8 |
| 20260510090733 | 20 | 130 | 0.0 | 0.0 | 0.00 | 0.03 | 0.03 | 98 | 1012.7 |
| 20260510090230 | 20 | 130 | 0.0 | 0.0 | 0.00 | 0.03 | 0.03 | 98 | 1012.5 |
| 20260510085725 | 20 | 130 | 0.0 | 0.0 | 0.00 | 0.03 | 0.03 | 98 | 1012.6 |
| 20260510085220 | 20 | 130 | 0.0 | 0.0 | 0.00 | 0.03 | 0.03 | 97 | 1012.5 |
| 20260510084716 | 21 | 131 | 0.0 | 0.0 | 0.00 | 0.03 | 0.03 | 97 | 1012.6 |
| 20260510084214 | 20 | 131 | 0.0 | 0.0 | 0.00 | 0.03 | 0.03 | 97 | 1012.3 |
| 20260510083710 | 21 | 142 | 0.0 | 0.0 | 0.00 | 0.03 | 0.03 | 97 | 1012.4 |
| 20260510083207 | 21 | 102 | 0.0 | 0.0 | 0.00 | 0.03 | 0.03 | 97 | 1012.3 |
| 20260510082702 | 21 | 142 | 0.0 | 0.0 | 0.00 | 0.03 | 0.03 | 97 | 1012.2 |
| 20260510082159 | 21 | 124 | 0.0 | 0.0 | 0.00 | 0.03 | 0.03 | 96 | 1012.4 |
| 20260510081658 | 21 | 124 | 0.0 | 0.0 | 0.00 | 0.03 | 0.03 | 96 | 1012.1 |
| 20260510081154 | 21 | 142 | 0.0 | 0.0 | 0.00 | 0.03 | 0.03 | 96 | 1012.2 |
| 20260510080649 | 21 | 110 | 0.0 | 0.0 | 0.00 | 0.03 | 0.03 | 96 | 1012.1 |
| 20260510080146 | 21 | 139 | 0.0 | 0.0 | 0.00 | 0.03 | 0.03 | 96 | 1012.2 |
| 20260510075643 | 21 | 109 | 0.0 | 0.0 | 0.00 | 0.03 | 0.03 | 96 | 1012.3 |
| 20260510075140 | 21 | 169 | 0.0 | 0.0 | 0.00 | 0.03 | 0.03 | 96 | 1012.3 |
| 20260510074638 | 21 | 105 | 0.0 | 1.6 | 0.00 | 0.03 | 0.03 | 96 | 1012.2 |
| 20260510074133 | 21 | 131 | 1.6 | 3.2 | 0.00 | 0.03 | 0.03 | 96 | 1012.2 |
| 20260510073630 | 21 | 112 | 0.0 | 1.6 | 0.00 | 0.03 | 0.03 | 95 | 1012.3 |
| 20260510073126 | 21 | 149 | 0.0 | 0.0 | 0.00 | 0.03 | 0.03 | 95 | 1012.1 |
| 20260510072622 | 21 | 140 | 1.6 | 1.6 | 0.00 | 0.03 | 0.03 | 95 | 1012.3 |
| 20260510072119 | 21 | 105 | 0.0 | 0.0 | 0.00 | 0.03 | 0.03 | 95 | 1012.3 |
| 20260510071615 | 21 | 117 | 0.0 | 0.0 | 0.00 | 0.03 | 0.03 | 96 | 1012.2 |
| 20260510071112 | 21 | 81 | 0.0 | 0.0 | 0.00 | 0.03 | 0.03 | 95 | 1012.3 |
| 20260510070609 | 21 | 120 | 3.2 | 4.8 | 0.00 | 0.03 | 0.03 | 96 | 1012.2 |
| 20260510070107 | 21 | 142 | 0.0 | 0.0 | 0.00 | 0.03 | 0.03 | 96 | 1012.4 |
| 20260510065603 | 20 | 132 | 0.0 | 0.0 | 0.00 | 0.03 | 0.03 | 96 | 1012.4 |
| 20260510065058 | 20 | 191 | 0.0 | 0.0 | 0.00 | 0.03 | 0.03 | 96 | 1012.4 |
| 20260510064555 | 20 | 129 | 0.0 | 0.0 | 0.00 | 0.03 | 0.03 | 97 | 1012.2 |
| 20260510064052 | 20 | 100 | 0.0 | 0.0 | 0.00 | 0.03 | 0.03 | 97 | 1012.3 |
| 20260510063549 | 20 | 162 | 0.0 | 0.0 | 0.00 | 0.03 | 0.03 | 97 | 1012.5 |
| 20260510063046 | 20 | 104 | 0.0 | 0.0 | 0.00 | 0.03 | 0.03 | 97 | 1012.5 |
| 20260510062542 | 20 | 94 | 0.0 | 0.0 | 0.00 | 0.03 | 0.03 | 96 | 1012.5 |
| 20260510062037 | 20 | 98 | 0.0 | 0.0 | 0.00 | 0.03 | 0.03 | 96 | 1012.5 |
| 20260510061534 | 20 | 93 | 0.0 | 0.0 | 0.00 | 0.03 | 0.03 | 96 | 1012.8 |
| 20260510061030 | 20 | 105 | 0.0 | 0.0 | 0.00 | 0.03 | 0.03 | 96 | 1012.7 |
| 20260510060527 | 20 | 102 | 0.0 | 0.0 | 0.00 | 0.03 | 0.03 | 96 | 1012.7 |
| 20260510060023 | 20 | 96 | 0.0 | 0.0 | 0.00 | 0.03 | 0.03 | 96 | 1012.8 |
| 20260510055519 | 20 | 107 | 0.0 | 0.0 | 0.00 | 0.03 | 0.03 | 96 | 1012.8 |
| 20260510055018 | 21 | 110 | 0.0 | 0.0 | 0.00 | 0.03 | 0.03 | 95 | 1013.0 |
| 20260510054513 | 21 | 96 | 0.0 | 0.0 | 0.00 | 0.03 | 0.03 | 95 | 1013.0 |
| 20260510054009 | 21 | 173 | 0.0 | 0.0 | 0.00 | 0.03 | 0.03 | 96 | 1013.0 |
| 20260510053503 | 20 | 188 | 3.2 | 4.8 | 0.00 | 0.03 | 0.03 | 97 | 1012.9 |
| 20260510053001 | 20 | 152 | 0.0 | 0.0 | 0.00 | 0.03 | 0.03 | 97 | 1013.0 |
| 20260510052456 | 20 | 160 | 0.0 | 0.0 | 0.00 | 0.03 | 0.03 | 97 | 1013.0 |
| 20260510051953 | 20 | 129 | 0.0 | 0.0 | 0.00 | 0.03 | 0.03 | 98 | 1013.1 |
| 20260510051448 | 20 | 139 | 0.0 | 0.0 | 0.00 | 0.03 | 0.03 | 98 | 1013.2 |
| 20260510050944 | 20 | 142 | 0.0 | 1.6 | 0.00 | 0.03 | 0.03 | 99 | 1013.2 |
| 20260510050442 | 20 | 118 | 1.6 | 1.6 | 0.00 | 0.03 | 0.03 | 99 | 1013.1 |
| 20260510045939 | 20 | 93 | 0.0 | 0.0 | 0.13 | 0.03 | 0.03 | 99 | 1013.2 |
| 20260510045436 | 20 | 138 | 1.6 | 4.8 | 0.13 | 0.03 | 0.03 | 99 | 1013.5 |
| 20260510044933 | 20 | 90 | 0.0 | 0.0 | 0.00 | 0.00 | 0.00 | 99 | 1013.6 |
| 20260510044430 | 20 | 131 | 3.2 | 3.2 | 0.00 | 0.00 | 0.00 | 99 | 1013.6 |
| 20260510043927 | 20 | 139 | 0.0 | 0.0 | 0.00 | 0.00 | 0.00 | 99 | 1013.6 |
| 20260510043422 | 20 | 139 | 0.0 | 0.0 | 0.00 | 0.00 | 0.00 | 99 | 1014.0 |
| 20260510042921 | 20 | 139 | 0.0 | 0.0 | 0.00 | 0.00 | 0.00 | 99 | 1014.0 |
| 20260510042416 | 20 | 139 | 0.0 | 0.0 | 0.00 | 0.00 | 0.00 | 99 | 1014.0 |
| 20260510041912 | 20 | 139 | 0.0 | 0.0 | 0.00 | 0.00 | 0.00 | 99 | 1013.9 |
| 20260510041409 | 20 | 139 | 0.0 | 0.0 | 0.00 | 0.00 | 0.00 | 99 | 1014.1 |
| 20260510040907 | 20 | 139 | 0.0 | 0.0 | 0.00 | 0.00 | 0.00 | 99 | 1014.1 |
| 20260510040404 | 20 | 108 | 0.0 | 1.6 | 0.00 | 0.00 | 0.00 | 99 | 1013.9 |
| 20260510035859 | 20 | 85 | 0.0 | 0.0 | 0.00 | 0.08 | 0.08 | 99 | 1014.0 |
| 20260510035355 | 20 | 74 | 0.0 | 0.0 | 0.00 | 0.08 | 0.08 | 99 | 1014.3 |
| 20260510034850 | 20 | 74 | 0.0 | 0.0 | 0.00 | 0.08 | 0.08 | 99 | 1014.6 |
| 20260510034349 | 20 | 74 | 0.0 | 0.0 | 0.00 | 0.08 | 0.08 | 99 | 1014.5 |
| 20260510033845 | 20 | 74 | 0.0 | 0.0 | 0.00 | 0.08 | 0.08 | 99 | 1014.4 |
| 20260510033342 | 20 | 74 | 0.0 | 0.0 | 0.00 | 0.08 | 0.08 | 99 | 1014.6 |
| 20260510032838 | 20 | 74 | 0.0 | 0.0 | 0.00 | 0.08 | 0.08 | 99 | 1014.5 |
| 20260510032335 | 20 | 74 | 0.0 | 0.0 | 0.00 | 0.08 | 0.08 | 99 | 1014.6 |
| 20260510031831 | 20 | 74 | 0.0 | 0.0 | 0.00 | 0.08 | 0.08 | 99 | 1014.6 |
| 20260510031326 | 20 | 74 | 0.0 | 0.0 | 0.00 | 0.08 | 0.08 | 99 | 1014.5 |
| 20260510030820 | 20 | 74 | 0.0 | 0.0 | 0.00 | 0.08 | 0.08 | 99 | 1014.4 |
| 20260510030317 | 20 | 74 | 0.0 | 0.0 | 0.00 | 0.08 | 0.08 | 99 | 1014.4 |
| 20260510025815 | 20 | 74 | 0.0 | 0.0 | 0.00 | 0.08 | 0.08 | 99 | 1014.2 |
| 20260510025312 | 20 | 74 | 0.0 | 0.0 | 0.00 | 0.08 | 0.08 | 99 | 1014.2 |
| 20260510024809 | 20 | 74 | 0.0 | 0.0 | 0.00 | 0.08 | 0.08 | 99 | 1014.1 |
| 20260510024306 | 20 | 74 | 0.0 | 0.0 | 0.00 | 0.08 | 0.08 | 99 | 1014.2 |
| 20260510023802 | 20 | 74 | 0.0 | 0.0 | 0.00 | 0.08 | 0.08 | 99 | 1014.2 |
| 20260510023258 | 20 | 74 | 0.0 | 0.0 | 0.00 | 0.08 | 0.08 | 99 | 1014.0 |
| 20260510022756 | 20 | 74 | 0.0 | 0.0 | 0.00 | 0.08 | 0.08 | 99 | 1014.0 |
| 20260510022255 | 20 | 74 | 0.0 | 0.0 | 0.00 | 0.08 | 0.08 | 99 | 1014.3 |
| 20260510021754 | 20 | 74 | 0.0 | 0.0 | 0.00 | 0.08 | 0.08 | 99 | 1013.9 |
| 20260510021253 | 20 | 74 | 0.0 | 0.0 | 0.00 | 0.08 | 0.08 | 99 | 1014.1 |
| 20260510020748 | 20 | 74 | 0.0 | 0.0 | 0.00 | 0.08 | 0.08 | 99 | 1014.1 |
| 20260510020242 | 20 | 74 | 0.0 | 0.0 | 0.00 | 0.08 | 0.08 | 98 | 1013.9 |
| 20260510015739 | 20 | 74 | 0.0 | 0.0 | 0.00 | 0.08 | 0.08 | 98 | 1013.8 |
| 20260510015235 | 20 | 74 | 0.0 | 0.0 | 0.00 | 0.08 | 0.08 | 98 | 1013.7 |
| 20260510014731 | 20 | 74 | 0.0 | 0.0 | 0.00 | 0.08 | 0.08 | 98 | 1013.4 |
| 20260510014228 | 20 | 74 | 0.0 | 0.0 | 0.00 | 0.08 | 0.08 | 98 | 1013.4 |
| 20260510013723 | 20 | 74 | 0.0 | 0.0 | 0.00 | 0.08 | 0.08 | 98 | 1013.6 |
| 20260510013219 | 21 | 75 | 0.0 | 0.0 | 0.00 | 0.08 | 0.08 | 98 | 1013.4 |
| 20260510012719 | 20 | 75 | 0.0 | 0.0 | 0.00 | 0.08 | 0.08 | 98 | 1013.4 |
| 20260510012214 | 20 | 75 | 0.0 | 0.0 | 0.00 | 0.08 | 0.08 | 98 | 1013.2 |
| 20260510011709 | 21 | 75 | 0.0 | 0.0 | 0.00 | 0.08 | 0.08 | 98 | 1013.2 |
| 20260510011205 | 21 | 52 | 0.0 | 0.0 | 0.00 | 0.08 | 0.08 | 98 | 1013.4 |
| 20260510010701 | 21 | 60 | 0.0 | 0.0 | 0.00 | 0.08 | 0.08 | 98 | 1013.2 |
| 20260510010158 | 21 | 60 | 0.0 | 0.0 | 0.00 | 0.08 | 0.08 | 98 | 1013.0 |
| 20260510005654 | 21 | 60 | 0.0 | 0.0 | 0.00 | 0.08 | 0.08 | 98 | 1013.0 |
| 20260510005151 | 21 | 46 | 0.0 | 0.0 | 0.00 | 0.08 | 0.08 | 98 | 1012.8 |
| 20260510004650 | 21 | 46 | 0.0 | 0.0 | 0.00 | 0.08 | 0.08 | 97 | 1013.0 |
| 20260510004147 | 21 | 46 | 0.0 | 0.0 | 0.00 | 0.08 | 0.08 | 97 | 1012.9 |
| 20260510003645 | 21 | 45 | 0.0 | 0.0 | 0.00 | 0.08 | 0.08 | 97 | 1012.8 |
| 20260510003140 | 21 | 45 | 0.0 | 0.0 | 0.00 | 0.08 | 0.08 | 97 | 1012.7 |
| 20260510002635 | 21 | 44 | 0.0 | 0.0 | 0.00 | 0.08 | 0.08 | 97 | 1012.6 |
| 20260510002132 | 21 | 44 | 0.0 | 0.0 | 0.00 | 0.08 | 0.08 | 97 | 1012.7 |
| 20260510001629 | 21 | 44 | 0.0 | 0.0 | 0.00 | 0.08 | 0.08 | 97 | 1012.8 |
| 20260510001128 | 21 | 75 | 1.6 | 1.6 | 0.00 | 0.08 | 0.08 | 97 | 1012.6 |
| 20260510000628 | 21 | 28 | 0.0 | 0.0 | 0.00 | 0.08 | 0.08 | 97 | 1012.8 |
| 20260510000126 | 21 | 51 | 0.0 | 0.0 | 0.00 | 0.08 | 0.08 | 97 | 1012.8 |
| 20260509235621 | 21 | 55 | 0.0 | 0.0 | 0.00 | 0.08 | 0.08 | 96 | 1012.6 |
| 20260509235119 | 21 | 94 | 0.0 | 0.0 | 0.00 | 0.08 | 0.08 | 96 | 1013.0 |
| 20260509234614 | 21 | 358 | 0.0 | 0.0 | 0.00 | 0.08 | 0.08 | 96 | 1013.1 |
| 20260509234113 | 21 | 358 | 0.0 | 0.0 | 0.00 | 0.08 | 0.08 | 96 | 1013.0 |
| 20260509233610 | 21 | 11 | 0.0 | 0.0 | 0.00 | 0.08 | 0.08 | 96 | 1012.9 |
| 20260509233107 | 21 | 63 | 0.0 | 0.0 | 0.00 | 0.08 | 0.08 | 96 | 1012.8 |
| 20260509232603 | 21 | 357 | 0.0 | 0.0 | 0.00 | 0.08 | 0.08 | 96 | 1012.9 |
| 20260509232100 | 21 | 39 | 0.0 | 0.0 | 0.00 | 0.08 | 0.08 | 96 | 1012.7 |
| 20260509231557 | 21 | 41 | 0.0 | 0.0 | 0.00 | 0.08 | 0.08 | 96 | 1012.6 |
| 20260509231054 | 21 | 35 | 0.0 | 0.0 | 0.00 | 0.08 | 0.08 | 96 | 1012.7 |
| 20260509230551 | 21 | 324 | 0.0 | 0.0 | 0.00 | 0.08 | 0.08 | 96 | 1012.8 |
| 20260509230048 | 21 | 353 | 0.0 | 0.0 | 0.00 | 0.08 | 0.08 | 96 | 1013.0 |
| 20260509225548 | 21 | 52 | 0.0 | 0.0 | 0.00 | 0.08 | 0.08 | 96 | 1012.9 |
| 20260509225044 | 21 | 302 | 1.6 | 4.8 | 0.00 | 0.08 | 0.08 | 96 | 1013.0 |
| 20260509224540 | 21 | 12 | 0.0 | 0.0 | 0.00 | 0.08 | 0.08 | 95 | 1013.2 |
| 20260509224037 | 21 | 17 | 0.0 | 1.6 | 0.00 | 0.08 | 0.08 | 95 | 1013.0 |
| 20260509223534 | 21 | 33 | 0.0 | 1.6 | 0.18 | 0.08 | 0.08 | 95 | 1013.2 |
| 20260509223032 | 21 | 9 | 0.0 | 0.0 | 0.18 | 0.08 | 0.08 | 95 | 1013.4 |
| 20260509222527 | 22 | 31 | 0.0 | 0.0 | 0.00 | 0.05 | 0.05 | 94 | 1013.5 |
| 20260509222023 | 22 | 311 | 0.0 | 1.6 | 0.00 | 0.05 | 0.05 | 94 | 1013.4 |
| 20260509221519 | 22 | 339 | 3.2 | 3.2 | 0.13 | 0.05 | 0.05 | 93 | 1013.4 |
| 20260509221015 | 22 | 340 | 1.6 | 1.6 | 0.13 | 0.05 | 0.05 | 92 | 1013.5 |
| 20260509220511 | 22 | 33 | 3.2 | 3.2 | 0.18 | 0.03 | 0.03 | 91 | 1013.4 |
| 20260509220008 | 22 | 350 | 1.6 | 3.2 | 0.18 | 0.03 | 0.03 | 89 | 1013.3 |
| 20260509215503 | 23 | 7 | 1.6 | 1.6 | 0.00 | 0.00 | 0.00 | 87 | 1013.2 |
| 20260509215001 | 23 | 60 | 0.0 | 1.6 | 0.00 | 0.00 | 0.00 | 84 | 1013.2 |
| 20260509214458 | 23 | 326 | 3.2 | 3.2 | 0.00 | 0.00 | 0.00 | 82 | 1013.0 |
| 20260509213954 | 23 | 333 | 4.8 | 4.8 | 0.00 | 0.00 | 0.00 | 82 | 1013.1 |
| 20260509213450 | 23 | 336 | 3.2 | 4.8 | 0.00 | 0.00 | 0.00 | 82 | 1013.0 |
| 20260509212948 | 24 | 25 | 1.6 | 1.6 | 0.00 | 0.00 | 0.00 | 81 | 1012.9 |
| 20260509212445 | 24 | 355 | 1.6 | 1.6 | 0.00 | 0.00 | 0.00 | 81 | 1012.7 |
| 20260509211942 | 24 | 11 | 1.6 | 1.6 | 0.00 | 0.00 | 0.00 | 81 | 1012.7 |
| 20260509211437 | 24 | 75 | 0.0 | 1.6 | 0.00 | 0.00 | 0.00 | 81 | 1012.3 |
| 20260509210934 | 25 | 14 | 4.8 | 6.4 | 0.00 | 0.00 | 0.00 | 79 | 1012.4 |
| 20260509210431 | 27 | 141 | 4.8 | 6.4 | 0.00 | 0.00 | 0.00 | 76 | 1012.1 |
| 20260509205927 | 27 | 62 | 1.6 | 1.6 | 0.00 | 0.00 | 0.00 | 75 | 1012.1 |
| 20260509205427 | 28 | 301 | 1.6 | 1.6 | 0.00 | 0.00 | 0.00 | 74 | 1011.8 |
| 20260509204923 | 28 | 32 | 1.6 | 1.6 | 0.00 | 0.00 | 0.00 | 73 | 1011.7 |
| 20260509204419 | 28 | 12 | 0.0 | 0.0 | 0.00 | 0.00 | 0.00 | 74 | 1011.7 |
| 20260509203916 | 28 | 104 | 0.0 | 1.6 | 0.00 | 0.00 | 0.00 | 74 | 1011.7 |
| 20260509203412 | 28 | 198 | 1.6 | 1.6 | 0.00 | 0.00 | 0.00 | 74 | 1011.7 |
| 20260509202910 | 28 | 263 | 1.6 | 1.6 | 0.00 | 0.00 | 0.00 | 73 | 1011.6 |
| 20260509202405 | 28 | 359 | 3.2 | 4.8 | 0.00 | 0.00 | 0.00 | 75 | 1011.8 |
| 20260509201900 | 28 | 328 | 1.6 | 4.8 | 0.00 | 0.00 | 0.00 | 74 | 1011.9 |
| 20260509201356 | 28 | 274 | 1.6 | 1.6 | 0.00 | 0.00 | 0.00 | 74 | 1012.2 |
| 20260509200853 | 28 | 338 | 1.6 | 1.6 | 0.00 | 0.00 | 0.00 | 74 | 1011.9 |
| 20260509200348 | 28 | 262 | 3.2 | 3.2 | 0.00 | 0.00 | 0.00 | 73 | 1012.0 |
| 20260509195845 | 28 | 293 | 0.0 | 0.0 | 0.00 | 0.00 | 0.00 | 74 | 1012.0 |
| 20260509195345 | 27 | 43 | 1.6 | 1.6 | 0.00 | 0.00 | 0.00 | 77 | 1011.7 |
| 20260509194845 | 27 | 108 | 0.0 | 0.0 | 0.00 | 0.00 | 0.00 | 76 | 1012.1 |
| 20260509194341 | 27 | 328 | 1.6 | 1.6 | 0.00 | 0.00 | 0.00 | 76 | 1011.9 |
| 20260509193838 | 28 | 265 | 3.2 | 3.2 | 0.00 | 0.00 | 0.00 | 76 | 1011.9 |
| 20260509193338 | 27 | 105 | 0.0 | 1.6 | 0.00 | 0.00 | 0.00 | 77 | 1012.2 |
| 20260509192835 | 27 | 358 | 0.0 | 0.0 | 0.00 | 0.00 | 0.00 | 77 | 1012.2 |
| 20260509192330 | 27 | 358 | 0.0 | 0.0 | 0.00 | 0.00 | 0.00 | 76 | 1012.0 |
| 20260509191825 | 27 | 177 | 1.6 | 1.6 | 0.00 | 0.00 | 0.00 | 77 | 1012.0 |
| 20260509191322 | 28 | 269 | 3.2 | 3.2 | 0.00 | 0.00 | 0.00 | 77 | 1012.1 |
| 20260509190818 | 27 | 8 | 0.0 | 1.6 | 0.00 | 0.00 | 0.00 | 78 | 1012.3 |
| 20260509190315 | 28 | 240 | 6.4 | 11.3 | 0.00 | 0.00 | 0.00 | 76 | 1012.3 |
| 20260509185812 | 28 | 343 | 3.2 | 4.8 | 0.00 | 0.00 | 0.00 | 77 | 1012.3 |
| 20260509185308 | 28 | 217 | 0.0 | 0.0 | 0.00 | 0.00 | 0.00 | 77 | 1012.3 |
| 20260509184806 | 28 | 258 | 1.6 | 3.2 | 0.00 | 0.00 | 0.00 | 75 | 1012.6 |
| 20260509184303 | 28 | 282 | 1.6 | 3.2 | 0.00 | 0.00 | 0.00 | 75 | 1012.6 |
| 20260509183759 | 28 | 97 | 0.0 | 1.6 | 0.00 | 0.00 | 0.00 | 75 | 1012.5 |
| 20260509183255 | 28 | 62 | 1.6 | 3.2 | 0.00 | 0.00 | 0.00 | 75 | 1012.3 |
| 20260509182750 | 28 | 247 | 3.2 | 4.8 | 0.00 | 0.00 | 0.00 | 73 | 1012.6 |
| 20260509182248 | 29 | 250 | 4.8 | 6.4 | 0.00 | 0.00 | 0.00 | 73 | 1012.3 |
| 20260509181745 | 28 | 161 | 4.8 | 6.4 | 0.00 | 0.00 | 0.00 | 72 | 1012.4 |
| 20260509181242 | 29 | 315 | 1.6 | 3.2 | 0.00 | 0.00 | 0.00 | 71 | 1012.7 |
| 20260509180740 | 29 | 235 | 4.8 | 6.4 | 0.00 | 0.00 | 0.00 | 71 | 1012.6 |
| 20260509180236 | 30 | 52 | 3.2 | 3.2 | 0.00 | 0.00 | 0.00 | 70 | 1012.5 |
| 20260509175732 | 30 | 291 | 6.4 | 9.7 | 0.00 | 0.00 | 0.00 | 70 | 1012.4 |
| 20260509175229 | 30 | 229 | 3.2 | 3.2 | 0.00 | 0.00 | 0.00 | 69 | 1012.5 |
| 20260509174725 | 30 | 313 | 4.8 | 6.4 | 0.00 | 0.00 | 0.00 | 68 | 1012.8 |
| 20260509174220 | 31 | 144 | 6.4 | 6.4 | 0.00 | 0.00 | 0.00 | 68 | 1012.5 |
| 20260509173717 | 31 | 175 | 4.8 | 6.4 | 0.00 | 0.00 | 0.00 | 65 | 1012.9 |
| 20260509173212 | 30 | 34 | 1.6 | 3.2 | 0.00 | 0.00 | 0.00 | 66 | 1012.9 |
| 20260509172708 | 30 | 206 | 3.2 | 4.8 | 0.00 | 0.00 | 0.00 | 66 | 1012.8 |
| 20260509172205 | 31 | 214 | 1.6 | 3.2 | 0.00 | 0.00 | 0.00 | 64 | 1012.5 |
| 20260509171700 | 31 | 110 | 1.6 | 3.2 | 0.00 | 0.00 | 0.00 | 64 | 1012.9 |
| 20260509171157 | 31 | 6 | 1.6 | 3.2 | 0.00 | 0.00 | 0.00 | 63 | 1012.9 |
| 20260509170654 | 31 | 246 | 1.6 | 3.2 | 0.00 | 0.00 | 0.00 | 64 | 1013.0 |
| 20260509170150 | 31 | 216 | 6.4 | 6.4 | 0.00 | 0.00 | 0.00 | 63 | 1012.8 |
| 20260509165648 | 31 | 302 | 1.6 | 3.2 | 0.00 | 0.00 | 0.00 | 64 | 1013.1 |
| 20260509165144 | 31 | 319 | 6.4 | 11.3 | 0.00 | 0.00 | 0.00 | 63 | 1013.0 |
| 20260509164640 | 31 | 242 | 3.2 | 6.4 | 0.00 | 0.00 | 0.00 | 63 | 1013.1 |
| 20260509164136 | 31 | 355 | 1.6 | 3.2 | 0.00 | 0.00 | 0.00 | 63 | 1013.1 |
| 20260509163634 | 31 | 278 | 8.0 | 11.3 | 0.00 | 0.00 | 0.00 | 63 | 1013.1 |
| 20260509163129 | 31 | 272 | 3.2 | 3.2 | 0.00 | 0.00 | 0.00 | 63 | 1013.1 |
| 20260509162627 | 31 | 68 | 1.6 | 1.6 | 0.00 | 0.00 | 0.00 | 62 | 1013.1 |
| 20260509162123 | 31 | 284 | 4.8 | 6.4 | 0.00 | 0.00 | 0.00 | 64 | 1013.1 |
| 20260509161619 | 30 | 337 | 3.2 | 3.2 | 0.00 | 0.00 | 0.00 | 66 | 1013.1 |
| 20260509161114 | 30 | 218 | 8.0 | 9.7 | 0.00 | 0.00 | 0.00 | 66 | 1013.0 |
| 20260509160610 | 30 | 324 | 3.2 | 3.2 | 0.00 | 0.00 | 0.00 | 66 | 1013.1 |
| 20260509160105 | 30 | 184 | 3.2 | 3.2 | 0.00 | 0.00 | 0.00 | 69 | 1012.8 |
| 20260509155602 | 28 | 162 | 4.8 | 4.8 | 0.00 | 0.00 | 0.00 | 70 | 1012.9 |
| 20260509155058 | 30 | 256 | 0.0 | 1.6 | 0.00 | 0.00 | 0.00 | 69 | 1013.0 |
| 20260509154554 | 30 | 94 | 3.2 | 3.2 | 0.00 | 0.00 | 0.00 | 68 | 1013.0 |
| 20260509154052 | 29 | 249 | 4.8 | 4.8 | 0.00 | 0.00 | 0.00 | 70 | 1012.8 |
| 20260509153549 | 29 | 112 | 1.6 | 4.8 | 0.00 | 0.00 | 0.00 | 70 | 1012.7 |
| 20260509153046 | 29 | 88 | 4.8 | 4.8 | 0.00 | 0.00 | 0.00 | 70 | 1012.7 |
| 20260509152541 | 28 | 228 | 3.2 | 3.2 | 0.00 | 0.00 | 0.00 | 72 | 1012.6 |
| 20260509152039 | 28 | 243 | 1.6 | 3.2 | 0.00 | 0.00 | 0.00 | 72 | 1012.4 |
| 20260509151535 | 28 | 342 | 6.4 | 9.7 | 0.00 | 0.00 | 0.00 | 72 | 1012.6 |
| 20260509151033 | 28 | 58 | 0.0 | 0.0 | 0.00 | 0.00 | 0.00 | 73 | 1012.7 |